Back to catalog

FENGYUN 1C DEB

AliveSSO
NORAD 37019·DEBRIS·🇨🇳 China

Launched May 10, 1999 from Taiyuan Satellite Launch Center

Loading…

Next Passes (next 24 hours)

TLE

FreshSource: Space-Track

Epoch: Sep 11, 2026, 11:39 UTC

1 37019U 99025EDB 26254.48545672  .00001669  00000-0  50148-3 0  9998
2 37019  98.5710 342.0546 0166287 236.5506 121.9688 14.36380023686749

Track FENGYUN 1C DEB in real time with AllMySat

Download on the App Store